Terminal Aerodrome Forecast
Issued by NWS Boston, MA

Home | Current Version | Previous Version | Text Only | Print | Product List | Glossary On
Versions: 1 2 3 4 5 6 7 8 9 10 11 12 13 14 15 16 17 18 19 20 21 22 23 24 25 26 27 28 29 30 31 32 33 34 35 36 37 38 39 40 41 42 43 44 45 46 47 48 49 50
000
FTUS41 KBOX 282035 AAA
TAFBOS
TAF AMD
KBOS 282035Z 2821/2924 10011KT P6SM SCT050
     FM290000 13005KT P6SM FEW050
     FM290100 20005KT P6SM FEW050
     FM290500 27004KT P6SM FEW250
     FM291400 20004KT P6SM FEW250
     FM291700 14006KT P6SM SCT250
     FM292100 17010KT P6SM BKN070
     FM292300 21009KT P6SM SCT120=

USA.gov is the U.S. government's official web portal to all federal, state and local government web resources and services.